Terug naar catalogus

STARLINK-32683

ActiefCommunicatieVLEO
NORAD 62445·PAYLOAD·🇺🇸 United States

Gelanceerd Dec 29, 2024 vanaf Vandenberg Space Force Base

Loading…

Volgende Passages (komende 24 uur)

TLE

VersSource: CelesTrak SupGP

Epoch: Sep 14, 2026, 21:18 UTC

1 62445C 24251P   26257.88798611 -.00008932  00000+0 -26397-3 0  2575
2 62445  53.1578 173.6813 0001461  85.2282 331.9094 15.34385275    13

Volg STARLINK-32683 in realtime met AllMySat

Download on the App Store